Estherville, IA

7:41 AM CDT on September 25, 2017 (GMT -0500)
Estherville Municipal

Weather History for KEST - January, 2015

Change the Weather History Date:

Sunday, January 25, 2015

  Actual Average Record
Temperature  
Mean Temperature 30 °F 16 °F  
Max Temperature 32 °F 25 °F 64 °F (1981)
Min Temperature 27 °F 7 °F -20 °F (1961)
Degree Days  
Heating Degree Days 35 49  
Month to date heating degree days 1201 1238  
Since 1 July heating degree days 4368 4381  
Cooling Degree Days 0 0  
Month to date cooling degree days 0 0  
Year to date cooling degree days 0 0  
Moisture  
Dew Point 28 °F    
Average Humidity 93    
Maximum Humidity 100    
Minimum Humidity 85    
Precipitation  
Precipitation 0.02 in 0.02 in 0.77 in (1967)
Month to date precipitation 0.13 0.34  
Sea Level Pressure  
Sea Level Pressure 29.85 in    
Wind  
Wind Speed 12 mph (North)    
Max Wind Speed 23 mph    
Max Gust Speed 30 mph    
Visibility 6 miles    
Events Snow    
T = Trace of Precipitation, MM = Missing Value Source: NWS Daily Summary

Daily Weather History Graph

Daily Weather History Graph

Search for Another Location

Airport or City:

Trip Planner

Search our weather history database for the weather conditions in past years. The results will help you decide how hot, cold, wet, or windy it might be!

Date:

Astronomy

Jan. 25, 2015 Rise Set
Actual Time 7:41 AM CST 5:21 PM CST
Civil Twilight 7:11 AM CST 5:52 PM CST
Nautical Twilight 6:36 AM CST 6:26 PM CST
Astronomical Twilight 6:02 AM CST 7:00 PM CST
Moon 10:37 AM CST 11:58 PM CST
Length of Visible Light 10h 40m
Length of Day
9h 39m
Waxing Crescent, 34% of the Moon is Illuminated
Jan 25
Waxing Crescent
Jan 26
First Quarter
Feb 3
Full
Feb 11
Last Quarter
Feb 18
New

Hourly Weather History & Observations

Time (CST) Temp. Windchill Dew Point Humidity Pressure Visibility Wind Dir Wind Speed Gust Speed Precip Events Conditions
12:20 AM 32.0 °F 23.6 °F 32.0 °F 100% 29.59 in 5.0 mi North 10.4 mph - 0.00 in Snow Light Snow
12:28 AM 32.0 °F 23.0 °F 32.0 °F 100% 29.59 in 4.0 mi North 11.5 mph - 0.00 in Snow Light Snow
12:52 AM 32.0 °F 22.5 °F 30.9 °F 96% 29.63 in 2.5 mi North 12.7 mph - 0.00 in Snow Light Snow
1:24 AM 32.0 °F 22.1 °F 32.0 °F 100% 29.61 in 3.0 mi North 13.8 mph - 0.00 in Snow Light Snow
1:49 AM 32.0 °F 21.6 °F 32.0 °F 100% 29.62 in 2.5 mi North 15.0 mph - 0.00 in Snow Light Snow
1:52 AM 32.0 °F 22.5 °F 32.0 °F 100% 29.66 in 3.0 mi North 12.7 mph - 0.00 in Snow Light Snow
2:13 AM 32.0 °F 22.1 °F 32.0 °F 100% 29.64 in 4.0 mi North 13.8 mph - 0.00 in Snow Light Snow
2:25 AM 32.0 °F 22.1 °F 32.0 °F 100% 29.64 in 2.0 mi North 13.8 mph - 0.00 in Snow Light Snow
2:34 AM 32.0 °F 22.1 °F 32.0 °F 100% 29.65 in 1.8 mi North 13.8 mph - 0.01 in Snow Light Snow
2:52 AM 32.0 °F 21.2 °F 32.0 °F 100% 29.69 in 1.0 mi North 16.1 mph - 0.01 in Snow Light Snow
3:15 AM 32.0 °F 21.2 °F 32.0 °F 100% 29.67 in 1.2 mi North 16.1 mph - 0.00 in Snow Light Snow
3:42 AM 32.0 °F 20.8 °F 30.9 °F 96% 29.69 in 2.0 mi North 17.3 mph - 0.00 in Snow Light Snow
3:49 AM 32.0 °F 21.2 °F 30.2 °F 93% 29.69 in 1.2 mi North 16.1 mph - 0.01 in Snow Light Snow
3:52 AM 32.0 °F 20.8 °F 30.9 °F 96% 29.73 in 1.2 mi North 17.3 mph - 0.01 in Snow Light Snow
4:44 AM 32.0 °F 20.1 °F 30.9 °F 96% 29.72 in 1.8 mi NNE 19.6 mph - 0.00 in Snow Light Snow
4:52 AM 32.0 °F 20.5 °F 30.9 °F 96% 29.77 in 2.0 mi NNE 18.4 mph - 0.00 in Snow Light Snow
5:01 AM 32.0 °F 20.1 °F 30.9 °F 96% 29.74 in 1.8 mi NNE 19.6 mph - 0.00 in Snow Light Snow
5:40 AM 32.0 °F 20.5 °F 30.9 °F 96% 29.76 in 2.5 mi NNE 18.4 mph - 0.00 in Snow Light Snow
5:52 AM 32.0 °F 20.8 °F 30.9 °F 96% 29.81 in 2.0 mi NNE 17.3 mph 25.3 mph 0.00 in Snow Light Snow
6:10 AM 32.0 °F 19.5 °F 30.9 °F 96% 29.78 in 3.0 mi North 21.9 mph - 0.00 in Snow Light Snow
6:39 AM 30.9 °F 18.4 °F 30.0 °F 96% 29.81 in 4.0 mi North 20.7 mph 27.6 mph 0.00 in Snow Light Snow
6:52 AM 30.9 °F 18.7 °F 30.0 °F 96% 29.86 in 6.0 mi North 19.6 mph - 0.00 in   Overcast
7:21 AM 30.9 °F 18.7 °F 28.9 °F 92% 29.83 in 4.0 mi North 19.6 mph 26.5 mph 0.00 in   Overcast
7:52 AM 30.0 °F 17.5 °F 28.9 °F 96% 29.90 in 6.0 mi NNE 19.6 mph 26.5 mph 0.00 in   Overcast
8:15 AM 30.0 °F 19.1 °F 28.9 °F 96% 29.88 in 6.0 mi NNE 15.0 mph - N/A   Overcast
8:52 AM 30.0 °F 18.7 °F 28.0 °F 92% 29.94 in 8.0 mi NNE 16.1 mph - N/A   Overcast
9:52 AM 28.0 °F 16.1 °F 26.1 °F 92% 29.97 in 10.0 mi NNE 16.1 mph 23.0 mph N/A   Overcast
10:52 AM 28.0 °F 16.5 °F 25.0 °F 88% 30.01 in 10.0 mi North 15.0 mph - N/A   Overcast
11:52 AM 28.9 °F 19.2 °F 26.1 °F 89% 30.02 in 10.0 mi NNE 11.5 mph - N/A   Overcast
12:52 PM 28.0 °F 17.0 °F 26.1 °F 92% 30.04 in 10.0 mi North 13.8 mph - N/A   Overcast
1:52 PM 28.0 °F 19.3 °F 25.0 °F 88% 30.04 in 10.0 mi North 9.2 mph - N/A   Overcast
2:52 PM 27.0 °F 17.3 °F 24.1 °F 89% 30.06 in 10.0 mi North 10.4 mph - N/A   Overcast
3:00 PM 28.0 °F 20.8 °F 24.1 °F 85% 30.02 in 10.0 mi NNW 6.9 mph - N/A   Overcast
3:52 PM 28.0 °F 18.6 °F 24.1 °F 85% 30.08 in 10.0 mi NNW 10.4 mph - N/A   Overcast
4:16 PM 28.0 °F 18.1 °F 24.1 °F 85% 30.03 in 10.0 mi North 11.5 mph - N/A   Overcast
4:52 PM 27.0 °F 20.5 °F 24.1 °F 89% 30.08 in 10.0 mi NNW 5.8 mph - N/A   Overcast
5:52 PM 27.0 °F 23.0 °F 24.1 °F 89% 30.07 in 10.0 mi North 3.5 mph - N/A   Overcast
6:52 PM 27.0 °F - 24.1 °F 89% 30.08 in 10.0 mi Calm Calm - N/A   Overcast
7:52 PM 27.0 °F - 24.1 °F 89% 30.09 in 10.0 mi Calm Calm - N/A   Overcast
8:52 PM 27.0 °F - 24.1 °F 89% 30.09 in 10.0 mi Calm Calm - N/A   Overcast
9:52 PM 28.0 °F 20.0 °F 25.0 °F 88% 30.06 in 10.0 mi South 8.1 mph - N/A   Overcast
10:52 PM 28.0 °F 18.6 °F 25.0 °F 88% 30.04 in 10.0 mi South 10.4 mph - N/A   Overcast
11:52 PM 28.9 °F 19.2 °F 27.0 °F 92% 30.01 in 10.0 mi South 11.5 mph - N/A   Overcast